{"data":{"norad_id":63593,"epoch":"2026-09-20T10:04:30.508320Z","epoch_age_seconds":159496,"freshness":"FRESH","line1":"1 63593U 25076AA  26263.41979755  .00007391  00000+0  27777-3 0  9994","line2":"2 63593  42.9994 301.7978 0001337 282.7347  77.3355 15.27586048 81619","mean_motion":15.27586048,"eccentricity":0.0001337,"inclination_deg":42.9994,"raan_deg":301.7978,"arg_perigee_deg":282.7347,"mean_anomaly_deg":77.3355,"bstar":0.00027777,"rev_number":8161,"period_min":94.266375493893,"perigee_km":482.11364805189,"apogee_km":483.9483243714,"semimajor_km":6861.1679862116,"source":"CELESTRAK","updated_at":"2026-09-21T09:00:35.049680Z"}}